Погода в Бирске

Погода в Бирске : погода сейчас, прогноз погоды и архив. Всё, что Вы хотите узнать о погоде в Бирске!

Хотите узнать прогноз погоды в Бирске? Тогда Вам сюда: Погода в Бирске

Поиск расширенной информации на нашем сайте:

Другие новости

Новости СМИ2

Главная страница сайта

Новости сайта

03.07.2017

Напоминаем, что на нашем специализированном сайте Метеоцентр.Азия вы можете получить высокодетализированные автоматические прогнозы погоды по пунктам России, СНГ и мира в авиационном формате (включающие направление и скорость ветра, видимость, явления погоды, количество и форму облачности, нижнюю и верхнюю границу облачности).

Рекомендуем: Английский язык в Одинцово

Погода в Бирске - сегодня

Время (UTC), дата Ветер
(°,м/с) 
Видим.   Явления Облачность Т
(°С)
Тd
(°С)
f(%) Тe
(°С)
Pmin
(гПа)
dP
(гПа)
Po
(мм)
O2
(г/м3)
Тmin Tmax R s Состояние
почвы
09 20.02.18 170 (Ю) 10 км  слаб. снег  10/0 средняя 
[As trans]
-7.5 -10.4 80 -10  1017.6  -0.9  745  310           
12 20.02.18 170 (Ю) 10 км  слаб. снег  10/0 средняя 
[As op]
-7.5 -9.9 83 -9  1016.7  -0.8  745  309           
15 20.02.18 180 (Ю) 10 км  {снег}  9/0 средняя 
[Ac trans]
-8.8 -10.4 88 -9  1016.4  -0.4  744  311    -6.8     
18 20.02.18 200 (Ю) 10 км  {снег}  9/0 средняя 
[Ac trans]
-8.8 -10.4 88 -10  1015.6  -0.8  744  311           
21 20.02.18 200 (Ю) 10 км  в посл. час снег  10/10 600 м 
[Sc]
-9.5 -11 89 -9  1015.3  -0.4  743  311           
00 21.02.18 210 (ЮЗ) 4000 м  слаб. снег  10/6 600 м средняя 
[Sc|As op]
-9.8 -11.3 89 -12  1015  -0.3  743  312           
03 21.02.18 190 (Ю) 4000 м  слаб. снег  10/8 600 м средняя 
[Sc|As op]
-10 -11.7 87 -12  1015.1  743  312  -10.5    0.5  28  неравномерный
сухой снег
100% 
06 21.02.18 200 (Ю) 10 км  слаб. снег  10/0 средняя 
[As op]
-8.4 -10.3 86 -11  1015.3  0.4  743  310           
09 21.02.18 220 (ЮЗ) 10 км  слаб. снег  9/0 средняя 
[Ac As]
-7.9 -10.7 80 -11  1015.7  0.5  744  310           
12 21.02.18 210 (ЮЗ) 10 км  слаб. снег  10/0 средняя 
[As op]
-6.9 -10 79 -10  1015.9  0.2  744  308           
15 21.02.18 210 (ЮЗ) 4000 м  слаб. снег  10/0 средняя 
[As op]
-7.7 -9.5 87 -9  1016.3  0.3  744  309    -6.8     
18 21.02.18 210 (ЮЗ) 4000 м  слаб. снег  10/0 средняя 
[As op]
-9.4 -10.9 89 -11  1017  0.6  745  312           
21 21.02.18 230 (ЮЗ) 10 км  {снег}  10/3 600 м кучево-дожд., средняя 
[Cb cap|Ac As]
-10.5 -12.1 88 -12  1017.5  0.4  745  313           
00 22.02.18 220 (ЮЗ) 10 км  {снег}  10/0 средняя 
[As op]
-11.9 -13.7 86 -14  1018.1  0.4  745  315           
03 22.02.18 220 (ЮЗ) 10 км    10/0 средняя 
[Ac und]
-13.4 -15.4 85 -17  1018.7  0.5  746  317  -13.4    29  неравномерный
сухой снег
100% 
06 22.02.18 230 (ЮЗ) 4000 м  слаб. снег  10/0 средняя 
[As op]
-14 -16.3 83 -18  1019.7  0.9  746  318  -14.4         
09 22.02.18 230 (ЮЗ) 4000 м  слаб. снег  10/0 средняя 
[As op]
-11.8 -15.1 76 -15  1019.9  0.4  747  316           
12 22.02.18 240 (ЮЗ) 20000 м  {снег}  8/3 600 м кучево-дожд., средняя, верхняя 
[Cb cap|Ac trans|Ci fib]
-11.2 -16.1 67 -14  1020.5  0.6  747  315           
15 22.02.18 220 (ЮЗ) 10 км    3/0 верхняя 
[Ci sp]
-14.3 -17.5 77 -16  1021.2  0.5  747  319    -11  0.4     
18 22.02.18 240 (ЮЗ) 10 км    4/4 600 м кучево-дожд. 
[Cb cap]
-14.8 -17.6 79 -18  1022  0.7  748  320           
21 22.02.18 230 (ЮЗ) 10 км    9/9 600 м кучево-дожд. 
[Cb cap]
-16.8 -19.1 82 -21  1022.7  0.4  748  323           
00 23.02.18 230 (ЮЗ) 10 км    8/8 600 м кучево-дожд. 
[Cb cap]
-18.5 -20.9 81 -21  1023.1  0.3  748  325           
03 23.02.18 230 (ЮЗ) 10 км    3/0 верхняя 
[Ci sp]
-19.5 -22.1 80 -22  1023.5  0.2  749  326  -19.6      29  неравномерный
сухой снег
100% 
06 23.02.18 220 (ЮЗ) 20000 м    8/0 верхняя 
[Cs]
-17.9 -20.6 79 -20  1023.8  0.5  749  325  -19.6         
09 23.02.18 210 (ЮЗ) 20000 м    6/0 верхняя 
[Cs]
-15.5 -19.1 74 -18  1024.1  0.5  749  322           
Время (UTC), дата Ветер
(°,м/с) 
Видим.   Явления Облачность Т
(°С)
Тd
(°С)
f(%) Тe
(°С)
Pmin
(гПа)
dP
(гПа)
Po
(мм)
O2
(г/м3)
Тmin Tmax R s Состояние
почвы

Для получения пояснительной информации подведите курсор к названию столбца.

ПОГОДА в Бирске - архив

Всё, что Вы хотите узнать о погоде в Бирске - удобно и подробно!

Выберите нужную дату (начиная с 1 января 2015* года) и нажмите кнопку "Найти".
Будут отображены архивные сводки погоды по пункту Бирск, начиная с указанной даты.


Отображать данные в формате CSV (для использования в таблицах Excel)


Внимание! Наш архив погоды предназначен исключительно для личного некоммерческого использования в познавательных целях. Если Вам необходимы официальные справки о состоянии погоды (для производственных, юридических, коммерческих и т.п. целей), обращайтесь в органы Росгидромета.

*Примечание: данная дата относится к архиву по метеостанциям СССР (Россия, СНГ, Балтия).
Архив по метеостанциям Зарубежной Европы и Азии (кроме Китая) хранится 10 дней, по другим регионам земного шара (Китай, Африка, Америка, Австралия, Океания) - 1 день.

Бирск - район местоположения метеостанции


Название, широта, долгота, высота метеостанции:
Бирск 55.4°ш. 55.5°д. 186 м над ур. моря [Российская Федерация]

Дополнительная информация

В oтличие oт бoльшинства пoгoдных сайтoв мы публикуем пoдрoбную метеoинфoрмацию в детальнoм прoфессиoнальнoм фoрмате.

Характеристики температуры и влажнoсти вoздуха измеряются на высoте 2 м в тени вдали oт зданий и деревьев.
Скoрoсть ветра измеряется на высoте 10 м (на урoвне рoста челoвека скoрoсть ветра ниже в 1.5-2 раза). Если метеoстанция нахoдится в гoрoде или в лесу, тo скoрoсть ветра занижена на 2-4 м/с пo сравнению с oткрытым местoм. Скoрoсть ветра над акватoриями крупных рек и oзёр, а также на вершинах хoлмoв на 2-5 м/с выше, чем в oбычных услoвиях.
Атмoсфернoе давление в разных тoчках местнoсти мoжет значительнo oтличаться oт давления на метеoстанции, в зависимoсти oт услoвий рельефа (при пoдъёме на 10 м давление пoнижается примернo на 1 мм рт.ст.).